Miscellaneous Local Product
Issued by NWS Hastings, NE

Home | Current Version | Previous Version | Graphics & Text | Print | Product List | Glossary On
Versions: 1 2 3 4 5 6 7 8 9 10 11 12 13 14 15 16 17 18 19 20 21 22 23 24 25 26 27 28 29 30 31 32 33 34 35 36 37 38 39 40 41 42 43 44 45 46 47 48 49 50
000
AXUS43 KGID 292302
MISGRI

GID CWA HOURLY WEATHER ROUNDUP
NATIONAL WEATHER SERVICE HASTINGS NE
600 PM CDT WED OCT 29 2014

NOTE: "FAIR" INDICATES FEW OR NO CLOUDS BELOW 12,000 FEET WITH NO
SIGNIFICANT WEATHER AND/OR OBSTRUCTIONS TO VISIBILITY.

...SOUTH CENTRAL NEBRASKA...

CITY           SKY/WX    TMP DP  RH WIND       PRES   REMARKS
GRAND ISLAND   CLEAR     60  33  36 S9        30.03F
HASTINGS       CLEAR     61  32  33 S8        30.02F
KEARNEY        CLEAR     61  32  33 SE7       30.02F
ORD            CLEAR     61  30  31 S8        29.99F
YORK           CLEAR     57  32  38 S10       30.05F
AURORA         CLEAR     58  31  35 S9        30.03F
LEXINGTON      CLEAR     65  32  29 S6        29.99F
HOLDREGE       CLEAR     65  32  28 CALM      30.00F
HEBRON         CLEAR     61  30  30 S7        30.05F

...NEBRASKA PANHANDLE...

CITY           SKY/WX    TMP DP  RH WIND       PRES   REMARKS
CHADRON        PTCLDY    61  26  26 NW13G24   30.00R
ALLIANCE       PTCLDY    64  26  23 N15       29.99R
SCOTTSBLUFF    PTCLDY    67  24  19 NW16      30.01R
SIDNEY         PTCLDY    65  21  18 NW15G28   30.03R

...WESTERN AND NORTH CENTRAL NEBRASKA...

CITY           SKY/WX    TMP DP  RH WIND       PRES   REMARKS
VALENTINE      MOCLDY    64  27  24 E3        29.94S
AINSWORTH      PTCLDY    61  24  24 S5        29.95S
ONEILL         CLEAR     58  32  36 S9        30.00R
BROKEN BOW     CLEAR     63  32  31 S8        29.98F
IMPERIAL       CLEAR     70  21  15 SW5       29.98F
NORTH PLATTE   CLEAR     68  25  19 S5        29.96F
MCCOOK         CLEAR     71  24  17 S6        29.99F

...EASTERN NEBRASKA...

CITY           SKY/WX    TMP DP  RH WIND       PRES   REMARKS
NORFOLK        CLEAR     55  31  39 S9        30.04F
SO SIOUX CITY  CLEAR     53  30  41 SE6       30.07F
TEKAMAH        CLEAR     55  31  39 S8        30.08F
COLUMBUS         N/A    N/A N/A N/A MISG        N/A
ALBION         CLEAR     56  30  36 S8        30.03F
OMAHA EPPLEY   CLEAR     54  31  41 SE7       30.10F
OFFUTT AFB     CLEAR     54  33  46 SE8       30.09F
MILLARD        CLEAR     55  33  42 S5        30.08F
LINCOLN        CLEAR     55  34  45 S8        30.09F
NEBRASKA CITY  CLEAR     54  28  37 S5        30.11S
BEATRICE       CLEAR     58  33  38 SE8       30.08F
FALLS CITY     CLEAR     56  32  40 S6        30.11F

...NORTHERN KANSAS...

CITY           SKY/WX    TMP DP  RH WIND       PRES   REMARKS
GOODLAND       CLEAR     71  20  14 W5        30.04S
HILL CITY      CLEAR     71  40  32 SW9       30.00F
NORTON         CLEAR     70  28  21 S7        29.99S
PHILLIPSBURG   CLEAR     73  36  25 S9        29.99F
SMITH CENTER   CLEAR     68  37  32 S8        30.01S
BELOIT         CLEAR     68  39  34 SE7       30.01F
HAYS           CLEAR     70  41  35 SW13      30.02F
RUSSELL        CLEAR     70  39  32 S13       30.01F
CONCORDIA      CLEAR     63  37  38 SE8       30.04F
SALINA         CLEAR     68  39  34 S8        30.06F
TOPEKA         CLEAR     61  35  37 SE8       30.12F



USA.gov is the U.S. government's official web portal to all federal, state and local government web resources and services.